Location: Most
(50.5133°N, 13.6207°E)
Time: 12:38:29
(UTC+01:00)

Oscar 11 - Pass Details

Date: 08 December 2021
Orbit: 611 x 625 km, 97.6° (Epoch: 23 January)

Event Time Altitude Azimuth Distance (km) Brightness Sun altitude
Rises 05:25:34 0° 15° (NNE) 2,918 10.6 -22.3°
Reaches altitude 10° 05:27:48 10° 19° (NNE) 2,004 9.8 -21.9°
Maximum altitude 05:32:08 64° 101° (ESE) 693 7.5 -21.3°
Drops below altitude 10° 05:36:25 10° 183° (S) 1,979 9.7 -20.6°
Sets 05:38:36 0° 187° (S) 2,878 10.6 -20.3°
